Time,TemperatureF,DewpointF,PressureIn,WindDirection,WindDirectionDegrees,WindSpeedMPH,WindSpeedGustMPH,Humidity,HourlyPrecipIn,Conditions,Clouds,dailyrainin,SoftwareType,DateUTC
2013-02-13 16:01:00,58.8,53.6,29.36,WNW,292,14.0,19.0,83,0.00,,,0.21,Weather View 32 v70,2013-02-13 21:01:00,
2013-02-13 16:06:00,58.6,53.8,29.35,West,270,14.0,27.0,84,0.00,,,0.21,Weather View 32 v70,2013-02-13 21:06:00,
2013-02-13 16:11:00,58.5,54.3,29.36,West,270,9.0,27.0,86,0.00,,,0.22,Weather View 32 v70,2013-02-13 21:11:00,
2013-02-13 16:16:00,58.4,54.5,29.37,WNW,292,12.0,27.0,87,0.00,,,0.22,Weather View 32 v70,2013-02-13 21:16:00,
2013-02-13 16:21:00,58.0,53.8,29.36,West,270,13.0,32.0,86,0.00,,,0.22,Weather View 32 v70,2013-02-13 21:21:00,
2013-02-13 16:26:00,57.8,54.3,29.36,West,270,11.0,32.0,88,0.00,,,0.22,Weather View 32 v70,2013-02-13 21:26:00,
2013-02-13 16:31:00,57.3,54.7,29.37,WNW,292,12.0,32.0,91,0.00,,,0.22,Weather View 32 v70,2013-02-13 21:31:00,
2013-02-13 16:36:00,56.8,55.1,29.37,WNW,292,9.0,32.0,94,0.00,,,0.22,Weather View 32 v70,2013-02-13 21:36:00,
2013-02-13 16:41:00,56.5,55.4,29.38,West,270,11.0,32.0,96,0.00,,,0.22,Weather View 32 v70,2013-02-13 21:41:00,
2013-02-13 16:46:00,56.2,55.4,29.36,WNW,292,8.0,32.0,97,0.00,,,0.22,Weather View 32 v70,2013-02-13 21:46:00,
2013-02-13 16:51:00,55.9,55.1,29.37,West,270,4.0,32.0,97,0.00,,,0.22,Weather View 32 v70,2013-02-13 21:51:00,
2013-02-13 16:56:00,55.6,54.8,29.37,WSW,247,2.0,32.0,97,0.00,,,0.22,Weather View 32 v70,2013-02-13 21:56:00,
2013-02-13 17:01:00,55.4,54.6,29.35,WSW,247,6.0,32.0,97,0.01,,,0.22,Weather View 32 v70,2013-02-13 22:01:00,
2013-02-13 17:06:00,55.2,54.4,29.37,WNW,292,11.0,32.0,97,0.01,,,0.22,Weather View 32 v70,2013-02-13 22:06:00,
2013-02-13 17:11:00,54.6,53.8,29.39,WNW,292,9.0,32.0,97,0.00,,,0.22,Weather View 32 v70,2013-02-13 22:11:00,
2013-02-13 17:16:00,54.0,53.2,29.40,West,270,9.0,32.0,97,0.00,,,0.22,Weather View 32 v70,2013-02-13 22:16:00,
2013-02-13 17:21:00,53.5,52.7,29.40,WNW,292,7.0,23.0,97,0.00,,,0.22,Weather View 32 v70,2013-02-13 22:21:00,
2013-02-13 17:26:00,53.2,52.4,29.40,West,270,5.0,23.0,97,0.00,,,0.22,Weather View 32 v70,2013-02-13 22:26:00,
2013-02-13 17:31:00,52.9,52.1,29.40,West,270,6.0,17.0,97,0.00,,,0.22,Weather View 32 v70,2013-02-13 22:31:00,
2013-02-13 17:36:00,52.7,51.9,29.40,West,270,7.0,16.0,97,0.00,,,0.22,Weather View 32 v70,2013-02-13 22:36:00,
2013-02-13 17:41:00,52.5,51.7,29.40,West,270,7.0,16.0,97,0.00,,,0.22,Weather View 32 v70,2013-02-13 22:41:00,
2013-02-13 17:46:00,52.4,51.6,29.38,West,270,1.0,16.0,97,0.00,,,0.22,Weather View 32 v70,2013-02-13 22:46:00,
2013-02-13 17:51:00,52.3,51.5,29.38,West,270,4.0,16.0,97,0.00,,,0.22,Weather View 32 v70,2013-02-13 22:51:00,
2013-02-13 17:56:00,52.3,51.5,29.41,WNW,292,6.0,16.0,97,0.01,,,0.23,Weather View 32 v70,2013-02-13 22:56:00,
2013-02-13 18:01:00,52.2,51.4,29.41,WNW,292,4.0,16.0,97,0.01,,,0.23,Weather View 32 v70,2013-02-13 23:01:00,
2013-02-13 18:06:00,52.1,51.3,29.39,West,270,4.0,16.0,97,0.01,,,0.23,Weather View 32 v70,2013-02-13 23:06:00,
2013-02-13 18:11:00,52.1,51.3,29.37,SSW,202,2.0,16.0,97,0.01,,,0.23,Weather View 32 v70,2013-02-13 23:11:00,
2013-02-13 18:16:00,52.3,51.5,29.38,West,270,7.0,12.0,97,0.01,,,0.23,Weather View 32 v70,2013-02-13 23:16:00,
2013-02-13 18:21:00,52.3,51.5,29.40,West,270,3.0,12.0,97,0.01,,,0.23,Weather View 32 v70,2013-02-13 23:21:00,
2013-02-13 18:26:00,52.3,51.5,29.38,SW,225,2.0,12.0,97,0.01,,,0.23,Weather View 32 v70,2013-02-13 23:26:00,
2013-02-13 18:31:00,52.4,51.6,29.37,WSW,247,4.0,12.0,97,0.01,,,0.23,Weather View 32 v70,2013-02-13 23:31:00,
2013-02-13 18:37:00,52.4,51.6,29.36,WSW,247,5.0,12.0,97,0.01,,,0.23,Weather View 32 v70,2013-02-13 23:37:00,
2013-02-13 18:42:00,52.6,51.8,29.38,West,270,9.0,19.0,97,0.01,,,0.23,Weather View 32 v70,2013-02-13 23:42:00,
2013-02-13 18:47:00,52.7,51.9,29.41,West,270,11.0,19.0,97,0.00,,,0.23,Weather View 32 v70,2013-02-13 23:47:00,
2013-02-13 18:52:00,52.7,51.9,29.38,WSW,247,14.0,19.0,97,0.00,,,0.23,Weather View 32 v70,2013-02-13 23:52:00,
2013-02-13 18:57:00,52.7,51.9,29.40,WSW,247,4.0,19.0,97,0.00,,,0.23,Weather View 32 v70,2013-02-13 23:57:00,
2013-02-13 19:02:00,52.7,51.9,29.36,WSW,247,6.0,19.0,97,0.00,,,0.23,Weather View 32 v70,2013-02-14 00:02:00,
2013-02-13 19:07:00,52.8,52.0,29.41,West,270,8.0,20.0,97,0.01,,,0.24,Weather View 32 v70,2013-02-14 00:07:00,
2013-02-13 19:12:00,52.7,51.9,29.40,SW,225,7.0,20.0,97,0.01,,,0.24,Weather View 32 v70,2013-02-14 00:12:00,
2013-02-13 19:17:00,52.6,51.8,29.37,West,270,9.0,20.0,97,0.01,,,0.24,Weather View 32 v70,2013-02-14 00:17:00,
2013-02-13 19:22:00,52.6,51.8,29.40,West,270,5.0,20.0,97,0.01,,,0.24,Weather View 32 v70,2013-02-14 00:22:00,
2013-02-13 19:27:00,52.6,51.8,29.39,WNW,292,9.0,20.0,97,0.01,,,0.24,Weather View 32 v70,2013-02-14 00:27:00,
2013-02-13 19:32:00,52.5,51.7,29.40,West,270,6.0,20.0,97,0.01,,,0.24,Weather View 32 v70,2013-02-14 00:32:00,
2013-02-13 19:37:00,52.5,51.7,29.40,West,270,7.0,20.0,97,0.01,,,0.24,Weather View 32 v70,2013-02-14 00:37:00,
2013-02-13 19:42:00,52.5,51.7,29.40,WSW,247,12.0,20.0,97,0.01,,,0.24,Weather View 32 v70,2013-02-14 00:42:00,
2013-02-13 19:47:00,52.5,51.7,29.40,West,270,5.0,20.0,97,0.01,,,0.24,Weather View 32 v70,2013-02-14 00:47:00,
2013-02-13 19:52:00,52.5,51.7,29.40,West,270,4.0,20.0,97,0.01,,,0.24,Weather View 32 v70,2013-02-14 00:52:00,
2013-02-13 20:01:00,52.4,51.6,29.42,WSW,247,7.0,20.0,97,0.01,,,0.24,Weather View 32 v70,2013-02-14 01:01:00,
2013-02-13 20:06:00,52.4,51.6,29.42,SW,225,6.0,16.0,97,0.00,,,0.24,Weather View 32 v70,2013-02-14 01:06:00,
2013-02-13 20:12:00,52.4,51.6,29.40,West,270,7.0,16.0,97,0.00,,,0.24,Weather View 32 v70,2013-02-14 01:12:00,
2013-02-13 20:17:00,52.4,51.6,29.42,WSW,247,8.0,16.0,97,0.00,,,0.24,Weather View 32 v70,2013-02-14 01:17:00,
2013-02-13 20:22:00,52.3,51.5,29.42,West,270,5.0,16.0,97,0.00,,,0.24,Weather View 32 v70,2013-02-14 01:22:00,
2013-02-13 20:27:00,52.3,51.5,29.43,West,270,9.0,16.0,97,0.00,,,0.24,Weather View 32 v70,2013-02-14 01:27:00,
2013-02-13 20:32:00,52.2,51.4,29.42,WNW,292,6.0,16.0,97,0.00,,,0.24,Weather View 32 v70,2013-02-14 01:32:00,
2013-02-13 20:37:00,52.1,51.3,29.43,WSW,247,9.0,16.0,97,0.00,,,0.24,Weather View 32 v70,2013-02-14 01:37:00,
2013-02-13 20:42:00,52.0,51.2,29.44,SW,225,12.0,16.0,97,0.01,,,0.25,Weather View 32 v70,2013-02-14 01:42:00,
2013-02-13 20:47:00,51.9,51.1,29.44,West,270,7.0,16.0,97,0.01,,,0.25,Weather View 32 v70,2013-02-14 01:47:00,
2013-02-13 20:52:00,51.9,51.1,29.43,West,270,5.0,16.0,97,0.01,,,0.25,Weather View 32 v70,2013-02-14 01:52:00,
2013-02-13 20:57:00,51.8,51.0,29.43,West,270,5.0,16.0,97,0.01,,,0.25,Weather View 32 v70,2013-02-14 01:57:00,
2013-02-13 21:02:00,51.8,51.0,29.44,West,270,11.0,16.0,97,0.01,,,0.25,Weather View 32 v70,2013-02-14 02:02:00,
2013-02-13 21:07:00,51.9,51.1,29.44,West,270,6.0,16.0,97,0.01,,,0.25,Weather View 32 v70,2013-02-14 02:07:00,
2013-02-13 21:12:00,51.7,50.9,29.44,West,270,9.0,16.0,97,0.01,,,0.25,Weather View 32 v70,2013-02-14 02:12:00,
2013-02-13 21:17:00,51.6,50.8,29.44,WNW,292,7.0,15.0,97,0.01,,,0.25,Weather View 32 v70,2013-02-14 02:17:00,
2013-02-13 21:22:00,51.4,50.6,29.44,West,270,11.0,15.0,97,0.01,,,0.25,Weather View 32 v70,2013-02-14 02:22:00,
2013-02-13 21:27:00,51.4,50.6,29.45,WSW,247,8.0,15.0,97,0.01,,,0.25,Weather View 32 v70,2013-02-14 02:27:00,
2013-02-13 21:32:00,51.3,50.5,29.46,West,270,7.0,15.0,97,0.01,,,0.25,Weather View 32 v70,2013-02-14 02:32:00,
2013-02-13 21:37:00,51.2,50.4,29.46,West,270,7.0,15.0,97,0.01,,,0.25,Weather View 32 v70,2013-02-14 02:37:00,
2013-02-13 21:42:00,51.1,50.3,29.46,WNW,292,6.0,14.0,97,0.00,,,0.25,Weather View 32 v70,2013-02-14 02:42:00,
2013-02-13 21:47:00,51.0,50.2,29.46,WNW,292,7.0,14.0,97,0.00,,,0.25,Weather View 32 v70,2013-02-14 02:47:00,
2013-02-13 21:52:00,50.9,50.1,29.45,WNW,292,6.0,14.0,97,0.01,,,0.26,Weather View 32 v70,2013-02-14 02:52:00,
2013-02-13 21:57:00,50.8,50.0,29.45,West,270,4.0,14.0,97,0.01,,,0.26,Weather View 32 v70,2013-02-14 02:57:00,
2013-02-13 22:02:00,50.6,49.8,29.46,WNW,292,4.0,14.0,97,0.01,,,0.26,Weather View 32 v70,2013-02-14 03:02:00,
2013-02-13 22:07:00,50.5,49.7,29.46,West,270,4.0,14.0,97,0.01,,,0.26,Weather View 32 v70,2013-02-14 03:07:00,
2013-02-13 22:12:00,50.5,49.7,29.46,WNW,292,4.0,14.0,97,0.01,,,0.26,Weather View 32 v70,2013-02-14 03:12:00,
2013-02-13 22:17:00,50.3,49.5,29.47,WNW,292,4.0,14.0,97,0.01,,,0.26,Weather View 32 v70,2013-02-14 03:17:00,
2013-02-13 22:22:00,50.1,49.3,29.47,WNW,292,5.0,14.0,97,0.01,,,0.26,Weather View 32 v70,2013-02-14 03:22:00,
2013-02-13 22:27:00,50.1,49.3,29.46,West,270,5.0,13.0,97,0.01,,,0.26,Weather View 32 v70,2013-02-14 03:27:00,
2013-02-13 22:32:00,49.9,49.1,29.46,WNW,292,4.0,12.0,97,0.01,,,0.26,Weather View 32 v70,2013-02-14 03:32:00,
2013-02-13 22:37:00,49.8,49.0,29.47,West,270,5.0,11.0,97,0.01,,,0.26,Weather View 32 v70,2013-02-14 03:37:00,
2013-02-13 22:42:00,49.7,48.9,29.47,WNW,292,8.0,11.0,97,0.01,,,0.26,Weather View 32 v70,2013-02-14 03:42:00,
2013-02-13 22:47:00,49.5,48.7,29.49,West,270,4.0,11.0,97,0.01,,,0.26,Weather View 32 v70,2013-02-14 03:47:00,
2013-02-13 22:52:00,49.5,48.7,29.49,West,270,7.0,13.0,97,0.00,,,0.26,Weather View 32 v70,2013-02-14 03:52:00,
2013-02-13 22:57:00,49.5,48.7,29.48,West,270,4.0,13.0,97,0.00,,,0.26,Weather View 32 v70,2013-02-14 03:57:00,
2013-02-13 23:03:00,49.4,48.6,29.49,West,270,4.0,13.0,97,0.00,,,0.26,Weather View 32 v70,2013-02-14 04:03:00,
2013-02-13 23:08:00,49.3,48.5,29.49,West,270,4.0,13.0,97,0.00,,,0.26,Weather View 32 v70,2013-02-14 04:08:00,
2013-02-13 23:13:00,49.1,48.3,29.49,West,270,7.0,13.0,97,0.00,,,0.26,Weather View 32 v70,2013-02-14 04:13:00,
2013-02-13 23:18:00,49.0,48.2,29.49,West,270,6.0,13.0,97,0.00,,,0.26,Weather View 32 v70,2013-02-14 04:18:00,
2013-02-13 23:23:00,48.9,48.1,29.49,WNW,292,7.0,13.0,97,0.00,,,0.26,Weather View 32 v70,2013-02-14 04:23:00,
2013-02-13 23:28:00,48.8,48.0,29.50,WNW,292,5.0,13.0,97,0.00,,,0.26,Weather View 32 v70,2013-02-14 04:28:00,
2013-02-13 23:33:00,48.7,47.9,29.48,WNW,292,6.0,13.0,97,0.00,,,0.26,Weather View 32 v70,2013-02-14 04:33:00,
2013-02-13 23:38:00,48.6,47.8,29.49,WNW,292,5.0,13.0,97,0.00,,,0.26,Weather View 32 v70,2013-02-14 04:38:00,
2013-02-13 23:43:00,48.5,47.7,29.49,WNW,292,5.0,13.0,97,0.00,,,0.26,Weather View 32 v70,2013-02-14 04:43:00,
2013-02-13 23:48:00,48.4,47.6,29.49,WNW,292,7.0,13.0,97,0.00,,,0.27,Weather View 32 v70,2013-02-14 04:48:00,
2013-02-13 23:53:00,48.3,47.5,29.49,West,270,6.0,12.0,97,0.01,,,0.27,Weather View 32 v70,2013-02-14 04:53:00,
2013-02-13 23:58:00,48.2,47.4,29.49,WNW,292,7.0,12.0,97,0.01,,,0.27,Weather View 32 v70,2013-02-14 04:58:00,